#timestamp,LO_Frequency,Hit,StdDev 
1667433615.4,286047000.7,N
1667433635.2,286047000.3,N
1667433655.0,286046998.6,N
1667433675.1,286046999.7,N
1667433676.0,286046999.7,N
1667433695.8,286047002.2,N
1667433715.6,286046999.8,N
1667433735.5,286047002.8,N
1667433755.3,286047000.4,N
1667433775.2,286047001.3,N
1667433795.9,286047003.9,Y
1667433815.7,286047001.4,P
1667433835.6,286047002.3,P
1667433855.4,286046998.7,N
1667433875.2,286046998.6,N
1667433895.1,286046998.6,N
1667433896.0,286046998.6,N
1667433915.8,286047001.1,N
1667433935.7,286046998.3,N
1667433955.5,286046999.2,N
1667433975.3,286046999.0,N
1667433995.2,286047000.4,N
1667434015.0,286047000.4,N
1667434015.9,286047000.4,N
1667434035.7,286047002.7,N
1667434055.6,286047001.9,N
1667434075.4,286047002.5,N
1667434095.3,286047002.8,N
1667434115.1,286047000.3,N
1667434135.8,286047000.4,N
1667434155.7,286047002.8,N
1667434175.5,286046998.2,N
1667434195.4,286046998.3,N
1667434215.2,286047000.4,N
1667434235.0,286047000.6,N
1667434235.9,286047000.6,N
1667434255.8,286047000.8,N
1667434275.6,286046998.6,N
1667434295.5,286046998.1,N
1667434315.3,286047000.1,N
1667434335.1,286047000.0,N
1667434355.9,286047000.8,N
1667434375.7,286047000.3,N
1667434395.6,286047002.4,N
1667434415.4,286047000.5,N
1667434435.2,286046998.5,N
1667434455.1,286046998.5,N
1667434456.0,286046998.5,N
1667434475.8,286047000.0,N
1667434495.7,286047003.0,N
1667434515.5,286047004.2,N
1667434565.4,286047000.8,E
1667434575.3,286046999.0,N
1667434595.1,286047000.3,P
1667434615.9,286047001.0,N
1667434635.7,286046999.0,N
1667434655.5,286047000.8,N
1667434675.4,286046998.9,N
1667434695.2,286046999.6,N
1667434715.1,286047002.7,Y
1667434716.0,286047002.7,P
1667434735.8,286047000.9,N
1667434755.6,286047000.3,N
1667434775.5,286047002.7,N
1667434795.3,286047002.6,N
1667434815.2,286047001.8,N
1667434835.9,286047002.8,N
1667434855.7,286047002.1,N
1667434875.9,286047002.3,N
1667434895.7,286047001.4,N
1667434915.5,286047004.4,Y
1667434935.7,286047002.0,P
1667434955.5,286047002.8,P
1667434975.4,286047002.6,P
1667434995.2,286047000.5,N
1667435015.0,286047001.0,N
1667435015.9,286047001.0,N
1667435035.8,286047002.3,N
1667435055.7,286047002.1,N
1667435075.5,286047002.1,N
1667435095.3,286047001.4,N
1667435115.2,286047002.5,Y
1667435135.0,286047000.6,P
1667435135.9,286047000.6,N
1667435155.8,286047000.3,N
1667435175.6,286046999.1,N
1667435195.4,286046998.6,N
1667435215.3,286047000.9,N
1667435235.1,286046999.1,N
1667435255.9,286046996.6,Y
1667435275.7,286046998.9,P
1667435295.5,286047000.5,N
1667435315.4,286047002.3,P
1667435335.2,286047000.0,N
1667435355.0,286046996.9,N
1667435356.0,286046996.9,N
1667435375.8,286046998.1,N
1667435395.6,286046999.9,N
1667435415.5,286046999.8,N
1667435435.3,286046999.9,N
1667435455.1,286047001.1,N
1667435475.9,286046996.9,N
1667435495.7,286046997.8,N
1667435515.6,286046996.5,N
1667435535.4,286046999.5,N
1667435555.2,286046997.7,N
1667435575.1,286046997.7,N
1667435576.0,286046997.7,N
1667435595.8,286046995.0,Y
1667435615.6,286046999.4,P
1667435635.5,286047001.2,P
1667435655.3,286046998.4,N
1667435675.2,286046998.9,N
1667435695.9,286046998.4,N
1667435715.7,286046998.4,N
1667435735.6,286046998.1,N
1667435755.4,286047000.6,N
1667435775.2,286046996.9,Y
1667435795.1,286046997.7,P
1667435796.0,286046997.7,P
1667435815.8,286046997.9,P
1667435835.7,286046999.3,N
1667435855.5,286046998.8,N
1667435875.3,286047000.2,N
1667435895.2,286047001.6,N
1667435915.0,286047004.1,Y
1667435915.9,286047004.1,P
1667435935.7,286047003.4,N
1667435955.6,286047001.5,N
1667435975.4,286047000.0,N
1667435995.3,286046998.7,N
1667436015.1,286046999.1,N
1667436016.0,286046999.1,N
1667436035.8,286047001.1,N
1667436055.7,286047001.2,N
1667436075.5,286046997.2,N
1667436095.3,286046998.5,N
1667436115.2,286046996.5,N
1667436135.0,286046999.4,N
1667436135.9,286046999.4,N
1667436155.8,286046999.3,N
1667436175.6,286046999.4,N
1667436195.4,286046998.7,N
1667436215.3,286046998.1,N
1667436235.1,286047002.3,N
1667436255.9,286047000.4,N
1667436275.7,286047000.6,N
1667436295.5,286047000.3,N
1667436315.4,286047000.7,N
1667436335.2,286047001.2,N
1667436355.0,286046998.5,N
1667436355.9,286046998.5,N
1667436375.8,286046998.7,N
1667436395.6,286046999.8,N
1667436415.5,286047000.8,N
1667436435.3,286046999.0,N
1667436455.1,286046999.4,N
1667436475.9,286046999.3,N
1667436495.7,286046998.6,N
1667436515.6,286046998.7,N
1667436535.4,286047001.2,N
1667436555.2,286047000.6,N
1667436575.1,286047000.7,N
1667436576.0,286047000.7,N
1667436595.8,286047000.6,N
1667436615.6,286047002.1,N
1667436635.5,286047001.5,N
1667436655.3,286047001.5,N
1667436675.2,286047000.6,N
1667436695.9,286046999.8,N
1667436715.7,286047000.0,N
1667436735.6,286047001.1,N
1667436755.4,286047000.2,N
1667436775.3,286047001.6,N
1667436795.1,286047003.8,Y
1667436815.8,286047004.1,P
1667436835.7,286047003.5,N
1667436855.5,286047001.8,N
1667436875.4,286047003.1,N
1667436895.2,286047001.4,N
1667436915.0,286047002.1,N
1667436915.9,286047002.1,N
1667436935.8,286047001.5,N
1667436955.6,286047001.8,N
1667436975.5,286047003.3,Y
1667436995.3,286047003.8,P
1667437015.1,286047001.7,N
1667437035.9,286047001.7,N
1667437055.7,286047000.2,N
1667437075.5,286046998.1,N
1667437095.4,286046998.9,N
1667437115.2,286046998.1,N
1667437135.1,286046998.2,N
1667437136.0,286046998.2,N
1667437155.8,286046998.8,N
1667437175.6,286046999.1,N
1667437195.5,286047000.7,N
